When you browse on this site, cookies collect data to enhance your experience and personalize the content and advertising you see.
Visit our Privacy Policy to learn more. By continuing to use the site, you agree to this use of cookies and data.
EN

Hourly Weather Dubnik

Today, 9 August, Sunday

Time Temperature Precipitation Wind Pressure Humidity
00:00 +22°C° 0 mm 1 mps 750 mmHg 82%
01:00 +21°C° 0 mm 1 mps 750 mmHg 84%
02:00 +21°C° 0 mm 1 mps 750 mmHg 87%
03:00 +21°C° 0 mm 1 mps 750 mmHg 88%
04:00 +20°C° 0 mm 1 mps 749 mmHg 89%
05:00 +20°C° 0 mm 1 mps 749 mmHg 90%
06:00 +22°C° 0 mm 1 mps 749 mmHg 86%
07:00 +23°C° 0 mm 1 mps 750 mmHg 81%
08:00 +24°C° 0 mm 1 mps 750 mmHg 76%
09:00 +26°C° 0.5 mm 1 mps 750 mmHg 71%
10:00 +27°C° 0.5 mm 1 mps 750 mmHg 66%
11:00 +28°C° 0.5 mm 2 mps 750 mmHg 61%
12:00 +28°C° 0.4 mm 2 mps 749 mmHg 60%
13:00 +28°C° 0.4 mm 2 mps 749 mmHg 59%
14:00 +29°C° 0.4 mm 2 mps 749 mmHg 57%
15:00 +28°C° 1.4 mm 2 mps 749 mmHg 64%
16:00 +27°C° 1.4 mm 2 mps 748 mmHg 70%
17:00 +26°C° 1.4 mm 2 mps 748 mmHg 76%
18:00 +25°C° 0.2 mm 2 mps 748 mmHg 79%
19:00 +24°C° 0.2 mm 2 mps 748 mmHg 82%
20:00 +23°C° 0.2 mm 2 mps 748 mmHg 86%
21:00 +22°C° 0.1 mm 1 mps 748 mmHg 87%
22:00 +21°C° 0.1 mm 1 mps 748 mmHg 88%
23:00 +21°C° 0.1 mm 1 mps 748 mmHg 89%

Tomorrow, 10 August, Monday

Time Temperature Precipitation Wind Pressure Humidity
00:00 +20°C° 0 mm 1 mps 748 mmHg 90%
01:00 +20°C° 0 mm 1 mps 748 mmHg 91%
02:00 +20°C° 0 mm 1 mps 748 mmHg 92%
03:00 +20°C° 0 mm 1 mps 747 mmHg 92%
04:00 +19°C° 0 mm 1 mps 747 mmHg 93%
05:00 +19°C° 0 mm 1 mps 747 mmHg 94%
06:00 +20°C° 0 mm 1 mps 748 mmHg 90%
07:00 +21°C° 0 mm 1 mps 748 mmHg 86%
08:00 +23°C° 0 mm 2 mps 748 mmHg 83%
09:00 +24°C° 0.3 mm 2 mps 748 mmHg 77%
10:00 +25°C° 0.3 mm 2 mps 748 mmHg 70%
11:00 +27°C° 0.3 mm 3 mps 748 mmHg 64%
12:00 +27°C° 0.3 mm 3 mps 748 mmHg 61%
13:00 +28°C° 0.3 mm 3 mps 748 mmHg 58%
14:00 +28°C° 0.3 mm 2 mps 748 mmHg 55%
15:00 +28°C° 0 mm 2 mps 748 mmHg 56%
16:00 +28°C° 0 mm 2 mps 747 mmHg 56%
17:00 +28°C° 0 mm 2 mps 747 mmHg 57%
18:00 +26°C° 0 mm 2 mps 747 mmHg 62%
19:00 +25°C° 0 mm 2 mps 747 mmHg 68%
20:00 +23°C° 0 mm 1 mps 747 mmHg 73%
21:00 +23°C° 0.1 mm 1 mps 748 mmHg 75%
22:00 +22°C° 0.1 mm 1 mps 748 mmHg 77%
23:00 +21°C° 0.1 mm 1 mps 748 mmHg 79%

Day after tomorrow, 11 August, Tuesday

Time Temperature Precipitation Wind Pressure Humidity
00:00 +21°C° 0 mm 1 mps 748 mmHg 81%
01:00 +21°C° 0 mm 1 mps 748 mmHg 83%
02:00 +20°C° 0 mm 1 mps 748 mmHg 85%
03:00 +20°C° 0 mm 1 mps 748 mmHg 87%
04:00 +20°C° 0 mm 1 mps 748 mmHg 90%
05:00 +19°C° 0 mm 1 mps 748 mmHg 92%
06:00 +20°C° 0 mm 1 mps 748 mmHg 88%
07:00 +21°C° 0 mm 2 mps 748 mmHg 84%
08:00 +23°C° 0 mm 2 mps 748 mmHg 81%
09:00 +24°C° 1.3 mm 2 mps 748 mmHg 76%
10:00 +25°C° 1.3 mm 3 mps 748 mmHg 72%
11:00 +26°C° 1.3 mm 3 mps 749 mmHg 68%
12:00 +27°C° 1.1 mm 3 mps 749 mmHg 66%
13:00 +27°C° 1.1 mm 3 mps 748 mmHg 64%
14:00 +27°C° 1.1 mm 3 mps 748 mmHg 62%
15:00 +27°C° 0.1 mm 3 mps 748 mmHg 61%
16:00 +27°C° 0.1 mm 3 mps 748 mmHg 60%
17:00 +27°C° 0.1 mm 3 mps 748 mmHg 59%
18:00 +25°C° 0.1 mm 3 mps 748 mmHg 65%
19:00 +22°C° 0.1 mm 3 mps 749 mmHg 72%
20:00 +21°C° 0.1 mm 3 mps 749 mmHg 78%
21:00 +20°C° 0 mm 3 mps 749 mmHg 79%
22:00 +19°C° 0 mm 3 mps 749 mmHg 80%
23:00 +18°C° 0 mm 3 mps 749 mmHg 81%

12 August, Wednesday

Time Temperature Precipitation Wind Pressure Humidity
00:00 +17°C° 0 mm 3 mps 749 mmHg 83%
01:00 +16°C° 0 mm 3 mps 749 mmHg 84%
02:00 +14°C° 0 mm 3 mps 749 mmHg 86%
03:00 +14°C° 0 mm 3 mps 750 mmHg 87%
04:00 +13°C° 0 mm 3 mps 750 mmHg 88%
05:00 +14°C° 0 mm 2 mps 750 mmHg 89%
06:00 +14°C° 0 mm 3 mps 750 mmHg 85%
07:00 +16°C° 0 mm 3 mps 750 mmHg 82%
08:00 +17°C° 0 mm 3 mps 751 mmHg 78%
09:00 +18°C° 0 mm 3 mps 751 mmHg 71%
10:00 +20°C° 0 mm 3 mps 751 mmHg 64%
11:00 +21°C° 0 mm 3 mps 751 mmHg 57%
12:00 +22°C° 0 mm 3 mps 751 mmHg 55%
13:00 +22°C° 0 mm 3 mps 751 mmHg 53%
14:00 +24°C° 0 mm 3 mps 751 mmHg 51%
15:00 +22°C° 0 mm 3 mps 751 mmHg 53%
16:00 +22°C° 0 mm 3 mps 751 mmHg 54%
17:00 +22°C° 0 mm 3 mps 750 mmHg 55%
18:00 +20°C° 0 mm 3 mps 750 mmHg 61%
19:00 +19°C° 0 mm 2 mps 750 mmHg 67%
20:00 +17°C° 0 mm 2 mps 750 mmHg 73%
21:00 +16°C° 0 mm 2 mps 750 mmHg 75%
22:00 +15°C° 0 mm 1 mps 751 mmHg 76%
23:00 +15°C° 0 mm 1 mps 751 mmHg 78%

13 August, Thursday

Time Temperature Precipitation Wind Pressure Humidity
00:00 +14°C° 0 mm 1 mps 750 mmHg 79%
01:00 +14°C° 0 mm 1 mps 750 mmHg 81%
02:00 +13°C° 0 mm 1 mps 750 mmHg 82%
03:00 +13°C° 0 mm 1 mps 750 mmHg 84%
04:00 +12°C° 0 mm 1 mps 750 mmHg 85%
05:00 +12°C° 0 mm 1 mps 750 mmHg 86%
06:00 +14°C° 0 mm 1 mps 750 mmHg 81%
07:00 +15°C° 0 mm 1 mps 750 mmHg 76%
08:00 +18°C° 0 mm 1 mps 750 mmHg 70%
09:00 +20°C° 0 mm 1 mps 750 mmHg 65%
10:00 +21°C° 0 mm 1 mps 750 mmHg 59%
11:00 +22°C° 0 mm 1 mps 750 mmHg 53%
12:00 +23°C° 0 mm 1 mps 750 mmHg 51%
13:00 +24°C° 0 mm 1 mps 749 mmHg 49%
14:00 +25°C° 0 mm 1 mps 749 mmHg 46%
15:00 +25°C° 0 mm 1 mps 749 mmHg 47%
16:00 +22°C° 0 mm 0 mps 748 mmHg 47%
17:00 +22°C° 0 mm 0 mps 748 mmHg 47%
18:00 +21°C° 0 mm 0 mps 748 mmHg 53%
19:00 +19°C° 0 mm 0 mps 748 mmHg 58%
20:00 +17°C° 0 mm 0 mps 748 mmHg 63%
21:00 +19°C° 0 mm 1 mps 748 mmHg 64%
22:00 +18°C° 0 mm 1 mps 748 mmHg 65%
23:00 +18°C° 0 mm 1 mps 748 mmHg 66%

14 August, Friday

Time Temperature Precipitation Wind Pressure Humidity
00:00 +16°C° 0 mm 1 mps 748 mmHg 69%
01:00 +16°C° 0 mm 1 mps 748 mmHg 71%
02:00 +14°C° 0 mm 0 mps 748 mmHg 74%
03:00 +14°C° 0 mm 0 mps 748 mmHg 76%
04:00 +14°C° 0 mm 1 mps 747 mmHg 77%
05:00 +14°C° 0 mm 1 mps 747 mmHg 79%
06:00 +16°C° 0 mm 1 mps 748 mmHg 75%
07:00 +18°C° 0 mm 1 mps 748 mmHg 70%
08:00 +20°C° 0 mm 1 mps 748 mmHg 66%
09:00 +22°C° 0 mm 1 mps 748 mmHg 61%
10:00 +23°C° 0 mm 1 mps 748 mmHg 56%
11:00 +25°C° 0 mm 1 mps 748 mmHg 51%
12:00 +26°C° 0 mm 1 mps 748 mmHg 49%
13:00 +26°C° 0 mm 1 mps 747 mmHg 46%
14:00 +27°C° 0 mm 1 mps 747 mmHg 43%
15:00 +26°C° 0 mm 1 mps 747 mmHg 43%
16:00 +26°C° 0 mm 1 mps 747 mmHg 44%
17:00 +26°C° 0 mm 1 mps 747 mmHg 44%
18:00 +24°C° 0 mm 1 mps 747 mmHg 50%
19:00 +22°C° 0 mm 1 mps 747 mmHg 55%
20:00 +19°C° 0 mm 0 mps 747 mmHg 60%
21:00 +18°C° 0 mm 0 mps 747 mmHg 62%
22:00 +18°C° 0 mm 0 mps 747 mmHg 64%
23:00 +17°C° 0 mm 0 mps 747 mmHg 65%
Show more